Waarnemingen

Advertentie
Mijn weer
List/Sylt, Duitsland (10020): temperatuur & dauwpunt: 13.07.2018 23:00:00 - 19.07.2018 23:00:00 (CEST)List/Sylt, Duitsland (10020): temperatuur 5cm & temperatuur -5cm: 13.07.2018 23:00:00 - 19.07.2018 23:00:00 (CEST)List/Sylt, Duitsland (10020): temperatuur -20cm: 13.07.2018 23:00:00 - 19.07.2018 23:00:00 (CEST)List/Sylt, Duitsland (10020): windsnelheid & windstoten: 13.07.2018 23:00:00 - 19.07.2018 23:00:00 (CEST)List/Sylt, Duitsland (10020): windrichting: 13.07.2018 23:00:00 - 19.07.2018 23:00:00 (CEST)List/Sylt, Duitsland (10020): luchtdruk: 13.07.2018 23:00:00 - 19.07.2018 23:00:00 (CEST)List/Sylt, Duitsland (10020): zicht: 13.07.2018 23:00:00 - 19.07.2018 23:00:00 (CEST)List/Sylt, Duitsland (10020): Zonneschijnduur: 13.07.2018 23:00:00 - 19.07.2018 23:00:00 (CEST)List/Sylt, Duitsland (10020): neerslag: 13.07.2018 23:00:00 - 19.07.2018 23:00:00 (CEST)
Datum & Tijd tt [°C] td [°C] tt 5cm [°C] tt -5cm [°C] tt -20cm [°C] ff [km/u] ff [kn] fx [km/u] fx [kn] dd ppp [hPa] vv [km] sd [min] rr [mm]
19.07.2018 23:00:00 14,6 11,2 13,2 23,2 22,2 21 11 28 15 NNW 1018,3 54 0 0,0
19.07.2018 22:00:00 15,4 11,5 14,3 24,0 22,2 21 12 30 16 NNW 1018,5 58 24 0,0
19.07.2018 21:00:00 16,5 11,4 16,7 24,9 22,1 24 13 34 18 NNW 1018,5 14 60 0,0
19.07.2018 20:00:00 17,3 11,1 18,8 25,7 22,0 27 15 36 19 NW 1018,5 10 60 0,0
19.07.2018 19:00:00 17,7 11,4 20,9 26,4 21,8 29 15 37 20 NW 1018,6 6 60 0,0
19.07.2018 18:00:00 18,8 11,9 23,5 26,7 21,6 29 16 39 21 NW 1018,9 5 60 0,0
19.07.2018 17:00:00 18,0 11,6 23,2 26,6 21,4 29 16 38 21 NW 1019,1 6 60 0,0
19.07.2018 16:00:00 19,2 11,7 25,6 26,2 21,2 27 15 37 20 NW 1019,2 6 60 0,0
19.07.2018 15:00:00 19,3 11,6 24,6 25,6 21,1 29 15 40 22 NW 1019,3 4,4 60 0,0
19.07.2018 14:00:00 18,8 12,3 25,0 24,6 21,0 26 14 35 19 NW 1019,4 8 60 0,0
19.07.2018 13:00:00 18,9 12,5 24,9 23,3 21,0 24 13 35 19 NW 1019,5 8 57 0,0
19.07.2018 12:00:00 18,4 12,7 24,6 22,3 21,0 24 13 34 18 NW 1019,5 11 45 0,0
19.07.2018 11:00:00 18,0 12,9 21,9 21,6 21,1 24 13 35 19 NW 1019,4 19 43 0,0
19.07.2018 10:00:00 18,0 13,3 21,9 21,1 21,2 22 12 31 17 NNW 1019,4 16 38 0,0
19.07.2018 09:00:00 17,9 13,1 21,1 20,7 21,3 19 11 28 15 WNW 1019,2 26 51 0,0
19.07.2018 08:00:00 17,0 13,3 17,4 20,4 21,5 18 10 28 15 WNW 1019,1 33 36 0,0
19.07.2018 07:00:00 16,6 14,3 16,3 20,3 21,7 12 6 19 10 W 1019,1 18 54 0,0
19.07.2018 06:00:00 15,5 14,0 13,9 20,4 21,9 11 6 16 9 WNW 1019,1 16 0 0,0
19.07.2018 05:00:00 15,0 13,4 13,1 20,7 22,0 13 7 15 8 NW 1019,1 16 0 0,0
19.07.2018 04:00:00 14,6 12,9 12,4 21,1 22,2 11 6 14 8 NW 1019,3 26 0 0,0
19.07.2018 03:00:00 14,3 13,0 12,2 21,5 22,4 11 6 18 10 NNW 1019,3 25 0 0,0
19.07.2018 02:00:00 14,5 12,8 12,9 22,0 22,5 15 8 19 11 NW 1019,4 26 0 0,0
19.07.2018 01:00:00 14,3 12,7 12,0 22,5 22,7 15 8 22 12 NNW 1019,3 28 0 0,0
19.07.2018 00:00:00 14,9 12,9 13,2 23,2 22,8 16 9 23 13 NNW 1019,4 34 0 0,0
18.07.2018 23:00:00 16,2 13,0 15,1 23,8 22,8 21 11 28 15 NW 1019,0 46 0 0,0
18.07.2018 22:00:00 16,3 12,4 15,4 24,5 22,8 21 11 31 17 NW 1019,0 47 25 0,0
18.07.2018 21:00:00 17,3 12,7 17,4 25,3 22,8 24 13 33 18 NW 1018,9 20 60 0,0
18.07.2018 20:00:00 18,2 13,1 19,7 26,1 22,7 25 14 36 19 NW 1018,7 8 60 0,0
18.07.2018 19:00:00 18,4 12,8 21,1 26,7 22,6 30 16 41 22 NW 1018,4 4,7 60 0,0
18.07.2018 18:00:00 18,9 13,1 22,9 26,9 22,5 31 17 40 21 NW 1018,3 4,0 60 0,0
18.07.2018 17:00:00 18,9 12,8 23,2 26,9 22,4 31 17 41 22 NW 1018,4 7 59 0,0
18.07.2018 16:00:00 19,1 13,1 24,2 26,7 22,2 32 17 41 22 NW 1018,4 4,2 60 0,0
18.07.2018 15:00:00 19,1 13,2 24,5 26,1 22,2 32 17 41 22 NW 1018,0 6 52 0,0
18.07.2018 14:00:00 19,5 13,4 24,4 25,3 22,2 32 18 44 24 NW 1017,8 6 51 0,0
18.07.2018 13:00:00 19,2 13,9 23,0 24,3 22,2 30 16 41 22 WNW 1017,6 10 42 0,0
18.07.2018 12:00:00 19,0 12,3 24,4 23,4 22,3 33 18 43 23 NW 1017,1 4,7 53 0,0
18.07.2018 11:00:00 19,2 14,1 23,7 22,9 22,4 33 18 41 22 NW 1016,6 8 8 0,0
18.07.2018 10:00:00 18,3 14,3 20,5 22,7 22,5 29 16 42 23 NW 1016,4 11 0 0,0
18.07.2018 09:00:00 17,9 14,0 18,6 22,7 22,7 28 15 37 20 NW 1016,1 24 0 0,0
18.07.2018 08:00:00 17,7 14,7 18,2 22,8 22,9 26 14 36 20 NW 1015,8 22 0 0,0
18.07.2018 07:00:00 17,6 14,5 17,7 23,0 23,0 23 12 29 16 NW 1015,2 14 0 0,0
18.07.2018 06:00:00 17,2 13,8 17,0 23,4 23,2 26 14 35 19 WNW 1014,8 18 0 0,0
18.07.2018 05:00:00 17,2 15,1 16,7 23,7 23,3 20 11 27 14 WNW 1014,6 11 0 0,0
18.07.2018 04:00:00 17,4 16,2 16,8 24,1 23,5 11 6 26 14 W 1014,4 8 0 0,0
18.07.2018 03:00:00 17,2 15,3 16,4 24,7 23,6 17 9 31 17 WZW 1014,4 12 0 0,0
18.07.2018 02:00:00 17,0 15,3 16,6 25,2 23,7 22 12 31 17 WZW 1014,5 14 0 0,0
18.07.2018 01:00:00 17,2 15,8 16,7 25,9 23,8 18 10 30 16 WZW 1014,4 11 0 0,0
18.07.2018 00:00:00 17,6 16,4 17,0 26,7 23,8 21 11 29 16 W 1014,4 8 0 0,0
17.07.2018 23:00:00 18,1 16,7 17,4 27,6 23,8 18 10 29 16 W 1014,4 7 0 0,0
17.07.2018 22:00:00 18,5 16,9 18,0 28,7 23,7 19 10 33 18 W 1014,2 8 6 0,0
17.07.2018 21:00:00 20,7 17,5 20,9 29,7 23,5 22 12 35 19 W 1013,7 10 60 0,0
17.07.2018 20:00:00 23,0 15,8 25,1 30,8 23,2 19 10 27 15 WZW 1013,0 12 60 0,0
17.07.2018 19:00:00 25,4 11,7 30,2 31,7 22,9 9 5 15 8 W 1012,7 14 60 0,0
17.07.2018 18:00:00 25,4 12,3 32,3 32,0 22,5 12 7 19 10 W 1012,9 17 60 0,0
17.07.2018 17:00:00 26,5 11,8 35,1 31,7 22,1 11 6 19 10 W 1013,0 13 60 0,0
17.07.2018 16:00:00 25,7 12,2 34,4 31,0 21,7 13 7 22 12 W 1013,2 40 60 0,0
17.07.2018 15:00:00 25,8 13,5 33,7 29,8 21,4 15 8 22 12 WNW 1013,4 12 60 0,0
17.07.2018 14:00:00 24,9 12,7 32,7 28,3 21,2 11 6 21 12 WNW 1013,4 13 60 0,0
17.07.2018 13:00:00 25,9 13,0 33,7 26,6 21,1 12 7 21 11 WNW 1013,5 12 60 0,0
17.07.2018 12:00:00 24,0 13,5 31,7 25,0 21,0 13 7 20 11 W 1013,4 12 60 0,0
17.07.2018 11:00:00 23,7 14,2 31,2 23,7 21,0 11 6 16 9 ZW 1013,4 15 60 0,0
17.07.2018 10:00:00 22,0 15,4 29,5 22,4 21,1 6 3 12 6 ZZO 1013,5 20 60 0,0
17.07.2018 09:00:00 19,9 14,7 25,4 21,6 21,2 8 4 11 6 OZO 1013,6 17 60 0,0
17.07.2018 08:00:00 19,4 14,9 21,4 21,3 21,4 12 6 15 8 ZO 1013,4 18 60 0,0
17.07.2018 07:00:00 19,1 15,1 20,2 21,1 21,5 10 5 14 7 ZO 1013,2 30 59 0,0
17.07.2018 06:00:00 18,2 13,8 16,1 21,3 21,7 14 7 16 9 OZO 1013,2 34 0 0,0
17.07.2018 05:00:00 18,2 13,5 15,4 21,6 21,8 13 7 16 9 OZO 1013,3 39 0 0,0
17.07.2018 04:00:00 17,8 13,0 14,5 22,1 22,0 11 6 13 7 O 1013,5 31 0 0,0
17.07.2018 03:00:00 17,2 13,8 15,8 22,5 22,1 14 8 21 12 NNO 1013,7 28 0 0,0
17.07.2018 02:00:00 17,1 13,8 15,8 23,0 22,2 21 11 22 12 NNO 1013,8 34 0 0,0
17.07.2018 01:00:00 17,9 14,7 16,2 23,6 22,3 17 9 23 12 N 1014,1 36 0 0,0
17.07.2018 00:00:00 18,3 13,8 16,8 24,3 22,3 21 11 22 12 N 1014,2 43 0 0,0
16.07.2018 23:00:00 18,9 14,6 17,4 25,0 22,3 18 10 25 13 N 1014,3 39 0 0,0
16.07.2018 22:00:00 19,7 13,9 18,8 25,8 22,3 20 11 29 16 N 1014,3 50 28 0,0
16.07.2018 21:00:00 20,8 13,7 21,3 26,7 22,2 22 12 31 17 N 1014,0 17 60 0,0
16.07.2018 20:00:00 21,7 13,6 23,6 27,5 22,0 23 12 30 16 NNW 1013,9 15 60 0,0
16.07.2018 19:00:00 21,4 13,5 24,4 28,3 21,7 26 14 34 18 NNW 1013,9 8 60 0,0
16.07.2018 18:00:00 22,0 13,5 26,2 28,9 21,4 27 15 34 19 NNW 1014,4 6 60 0,0
16.07.2018 17:00:00 22,3 13,7 27,7 29,2 21,1 26 14 33 18 NW 1014,7 8 60 0,0
16.07.2018 16:00:00 23,0 13,6 29,3 28,9 20,7 24 13 29 16 NW 1015,2 7 60 0,0
16.07.2018 15:00:00 22,6 13,6 29,2 28,3 20,4 22 12 29 15 WNW 1015,5 6 60 0,0
16.07.2018 14:00:00 23,6 13,2 30,7 27,2 20,1 21 11 26 14 WNW 1015,9 12 60 0,0
16.07.2018 13:00:00 23,8 13,7 31,3 25,7 20,0 16 9 22 12 WNW 1016,2 10 60 0,0
16.07.2018 12:00:00 23,7 13,4 32,9 24,0 19,9 10 5 14 7 Z 1016,3 13 60 0,0
16.07.2018 11:00:00 22,0 14,2 30,9 22,4 19,9 8 4 14 7 ZZO 1016,4 10 60 0,0
16.07.2018 10:00:00 19,8 13,7 26,9 21,1 20,0 8 4 14 7 O 1016,5 12 60 0,0
16.07.2018 09:00:00 19,5 13,2 24,4 20,2 20,1 9 5 15 8 O 1016,7 18 60 0,0
16.07.2018 08:00:00 18,3 12,5 21,0 19,8 20,3 9 5 14 8 O 1016,7 18 60 0,0
16.07.2018 07:00:00 17,2 13,0 17,4 19,6 20,4 8 5 15 8 ONO 1016,7 35 60 0,0
16.07.2018 06:00:00 15,5 12,7 14,1 19,8 20,6 13 7 14 8 NO 1016,7 36 3 0,0
16.07.2018 05:00:00 14,9 13,1 13,3 20,1 20,7 13 7 16 9 NNO 1016,9 22 0 0,0
16.07.2018 04:00:00 14,7 13,0 12,7 20,6 20,9 15 8 17 9 NNO 1017,2 29 0 0,0
16.07.2018 03:00:00 14,9 12,5 13,3 21,0 21,0 16 8 16 9 NNO 1017,4 49 0 0,0
16.07.2018 02:00:00 15,2 13,1 13,5 21,6 21,1 12 7 14 7 NNO 1017,9 52 0 0,0
16.07.2018 01:00:00 15,7 13,7 13,2 22,2 21,2 6 4 18 10 NNW 1017,9 48 0 0,0
16.07.2018 00:00:00 15,4 12,7 14,0 22,9 21,3 13 7 15 8 N 1017,6 66 0 0,0
15.07.2018 23:00:00 15,4 13,1 13,8 23,8 21,2 14 8 16 9 N 1017,7 67 0 0,0
15.07.2018 22:00:00 15,8 12,7 14,5 24,8 21,2 12 7 20 11 NNW 1017,7 62 33 0,0
15.07.2018 21:00:00 18,2 13,4 18,6 25,8 21,0 16 9 24 13 NNW 1017,5 25 60 0,0
15.07.2018 20:00:00 18,9 13,3 21,3 26,8 20,8 18 10 26 14 NW 1017,5 11 60 0,0
15.07.2018 19:00:00 19,3 12,4 23,7 27,7 20,4 21 12 29 15 WNW 1017,8 6 60 0,0
15.07.2018 18:00:00 19,9 12,1 25,6 28,1 20,1 18 10 26 14 WNW 1018,3 9 60 0,0
15.07.2018 17:00:00 19,4 11,8 25,9 28,0 19,7 19 10 26 14 WNW 1018,4 18 60 0,0
15.07.2018 16:00:00 19,9 12,6 27,6 27,3 19,4 17 9 27 15 W 1018,7 11 60 0,0
15.07.2018 15:00:00 19,6 12,9 27,4 26,2 19,1 19 10 27 15 W 1019,0 11 60 0,0
15.07.2018 14:00:00 19,9 12,0 26,9 24,7 18,9 21 11 29 15 W 1019,1 24 60 0,0
15.07.2018 13:00:00 19,4 10,4 26,0 23,2 18,7 20 11 29 16 W 1019,2 10 60 0,0
15.07.2018 12:00:00 19,1 10,1 26,4 21,8 18,7 20 11 28 15 WZW 1019,2 9 60 0,0
15.07.2018 11:00:00 19,4 10,3 25,7 20,5 18,7 18 10 26 14 WZW 1019,2 14 60 0,0
15.07.2018 10:00:00 19,0 11,3 24,2 19,5 18,7 16 8 25 14 W 1019,1 20 60 0,0
15.07.2018 09:00:00 17,7 13,2 21,2 18,8 18,8 15 8 22 12 W 1019,1 18 60 0,0
15.07.2018 08:00:00 16,8 13,6 18,6 18,4 18,9 15 8 19 11 W 1018,8 16 60 0,0
15.07.2018 07:00:00 15,6 13,2 15,7 18,2 19,1 12 6 16 9 W 1018,7 25 60 0,0
15.07.2018 06:00:00 15,0 13,5 13,6 18,3 19,2 13 7 17 9 W 1018,8 70 1 0,0
15.07.2018 05:00:00 14,8 13,5 13,3 18,5 19,3 15 8 18 10 W 1018,9 58 0 0,0
15.07.2018 04:00:00 14,9 13,4 13,3 18,8 19,4 13 7 19 11 W 1019,0 57 0 0,0
15.07.2018 03:00:00 14,7 12,9 13,2 19,1 19,5 15 8 19 10 W 1019,1 70 0 0,0
15.07.2018 02:00:00 14,7 12,8 13,1 19,5 19,6 13 7 18 10 W 1019,2 54 0 0,0
15.07.2018 01:00:00 14,6 12,6 13,0 19,9 19,7 14 8 16 9 W 1019,3 50 0 0,0
15.07.2018 00:00:00 14,7 12,1 13,1 20,5 19,7 14 8 19 11 W 1019,6 58 0 0,0
14.07.2018 23:00:00 14,7 11,9 13,3 21,1 19,7 14 8 19 10 W 1019,7 62 0 0,0
14.07.2018 22:00:00 14,9 11,9 13,7 21,9 19,7 13 7 23 12 WNW 1019,7 64 28 0,0
14.07.2018 21:00:00 15,8 12,2 15,9 22,6 19,6 16 9 26 14 WNW 1019,4 41 44 0,0
14.07.2018 20:00:00 16,5 12,0 18,2 23,2 19,4 21 11 30 16 WNW 1019,5 26 58 0,0
14.07.2018 19:00:00 17,1 11,0 20,9 23,7 19,2 25 13 36 19 WNW 1019,7 6 58 0,0
14.07.2018 18:00:00 17,0 10,4 22,0 23,8 19,0 26 14 36 19 WNW 1019,7 10 53 0,0
14.07.2018 17:00:00 17,2 10,1 22,2 23,6 18,8 26 14 35 19 WNW 1019,9 8 58 0,0
14.07.2018 16:00:00 17,9 9,1 24,6 22,9 18,6 24 13 34 19 NW 1020,2 5 59 0,0
14.07.2018 15:00:00 17,2 10,2 23,7 21,6 18,5 22 12 35 19 WNW 1020,4 9 47 0,0
14.07.2018 14:00:00 17,4 10,8 22,9 20,5 18,5 22 12 35 19 NW 1020,5 18 41 0,0
14.07.2018 13:00:00 16,6 10,7 20,2 19,4 18,5 23 12 36 20 NW 1020,5 23 0 0,0
14.07.2018 12:00:00 16,1 11,7 18,1 19,2 18,5 27 14 32 18 WNW 1020,6 20 2 0,0
14.07.2018 11:00:00 16,3 11,8 19,9 18,7 18,6 23 12 30 16 WNW 1020,6 21 4 0,0
14.07.2018 10:00:00 15,6 11,1 17,8 18,3 18,7 23 12 30 16 WNW 1020,4 22 0 0,0
14.07.2018 09:00:00 15,5 11,0 16,7 18,0 18,8 22 12 29 16 NW 1020,3 36 0 0,0
14.07.2018 08:00:00 15,0 11,0 15,2 18,0 18,9 19 11 27 15 WNW 1020,2 58 0 0,0
14.07.2018 07:00:00 14,1 10,6 14,2 18,1 19,0 19 10 34 19 NW 1019,8 55 0 0,0
14.07.2018 06:00:00 14,0 11,1 13,4 18,2 19,1 18 10 26 14 WNW 1019,9 62 0 0,0
14.07.2018 05:00:00 13,0 11,5 12,3 18,4 19,2 18 10 36 19 NW 1020,1 55 0 0,1
14.07.2018 04:00:00 14,0 10,9 13,9 18,6 19,3 17 9 28 15 NW 1020,1 70 0 0,0
14.07.2018 03:00:00 13,4 11,2 13,4 18,8 19,4 18 10 32 17 NW 1020,4 61 0 0,0
14.07.2018 02:00:00 14,3 11,3 14,2 19,1 19,5 19 10 29 16 NNW 1020,3 58 0 0,0
14.07.2018 01:00:00 14,4 11,0 14,3 19,3 19,6 19 11 29 16 NNW 1020,4 34 0 0,0
14.07.2018 00:00:00 14,7 11,4 14,6 19,6 19,7 20 11 28 15 NW 1020,5 38 0 0,0
13.07.2018 23:00:00 14,6 11,1 14,6 19,8 19,7 22 12 39 21 NW 1020,6 44 0 0,0

tt = temperatuur
td = dauwpunt
tt 5cm = temperatuur 5cm
tt -5cm = temperatuur -5cm
tt -20cm = temperatuur -20cm
ff = windsnelheid
fx = windstoten
dd = windrichting
ppp = luchtdruk
vv = zicht
sd = Zonneschijnduur
rr = neerslag

Weerstations in de omgeving